Location: Tamazert
(32.6352°N, 5.2072°W)
Time: 17:19:03
(UTC+00:00)

Cosmos 1484 Rocket - Pass Details

Date: 22 May 2022
Orbit: 503 x 553 km, 97.5° (Epoch: 06 July)

Event Time Altitude Azimuth Distance (km) Brightness Sun altitude
Rises 04:16:12 0° 15° (NNE) 2,664 7.1 -12.2°
Reaches altitude 10° 04:18:19 10° 18° (NNE) 1,780 6.2 -11.8°
Maximum altitude 04:22:08 64° 100° (E) 594 3.2 -11.1°
Drops below altitude 10° 04:25:59 10° 183° (S) 1,796 5.1 -10.4°
Enters shadow 04:27:47 - 186° (S) 2,552 5.9 -10.1°
